Satellite: NOAA 17
Catalog number: 27453
Epoch time:      103028.61638051
Element set:     284 
Inclination:       98.7582 deg
RA of node:        99.9353 deg
Eccentricity:    0.0012574
Arg of perigee:    59.6209 deg
Mean anomaly:     300.6691 deg
Mean motion:   14.23280181 rev/day
Decay rate:    2.7300E-006 rev/day^2
Epoch rev:            3098
Checksum:              314

Satellite: HOT BIRD 6
Catalog number: 27499
Epoch time:      103013.80550721
Element set:     66 
Inclination:        0.0928 deg
RA of node:        32.8693 deg
Eccentricity:    0.0008090
Arg of perigee:   290.3889 deg
Mean anomaly:      92.5421 deg
Mean motion:    1.00271722 rev/day
Decay rate:    1.0600E-006 rev/day^2
Epoch rev:             147
Checksum:              269

Satellite: RUBIN 2
Catalog number: 27605
Epoch time:      103027.76245964
Element set:     40 
Inclination:       64.5539 deg
RA of node:       263.4566 deg
Eccentricity:    0.0029767
Arg of perigee:   118.8620 deg
Mean anomaly:     241.5467 deg
Mean motion:   14.71397370 rev/day
Decay rate:    6.2700E-006 rev/day^2
Epoch rev:             560
Checksum:              313

Satellite: STS 107
Catalog number: 27647
Epoch time:      103028.58333333
Element set:     51 
Inclination:       39.0184 deg
RA of node:       149.4847 deg
Eccentricity:    0.0009267
Arg of perigee:   110.3182 deg
Mean anomaly:     313.2464 deg
Mean motion:   16.01012192 rev/day
Decay rate:    6.7824E-004 rev/day^2
Epoch rev:             190
Checksum:              283


Read previous mail | Read next mail


 14.10.2025 16:00:23lGo back Go up